Time,TemperatureF,DewpointF,PressureIn,WindDirection,WindDirectionDegrees,WindSpeedMPH,WindSpeedGustMPH,Humidity,HourlyPrecipIn,Conditions,Clouds,dailyrainin,SoftwareType,DateUTC
2013-09-05 00:02:00,67.8,37.6,30.09,North,0,0.0,0.0,33,0.00,CLR,OVC,0.00,WeatherDisplay:10.37,2013-09-05 05:02:00,
2013-09-05 00:07:00,67.8,37.6,30.09,North,0,0.0,0.0,33,0.00,CLR,OVC,0.00,WeatherDisplay:10.37,2013-09-05 05:07:00,
2013-09-05 00:12:00,67.8,37.6,30.09,North,0,0.0,0.0,33,0.00,CLR,OVC,0.00,WeatherDisplay:10.37,2013-09-05 05:12:00,
2013-09-05 00:17:00,67.8,37.6,30.09,North,0,0.0,0.0,33,0.00,CLR,OVC,0.00,WeatherDisplay:10.37,2013-09-05 05:17:00,
2013-09-05 00:22:00,67.8,37.6,30.09,North,0,0.0,0.0,33,0.00,CLR,OVC,0.00,WeatherDisplay:10.37,2013-09-05 05:22:00,
2013-09-05 00:27:00,67.8,37.6,30.09,North,0,0.0,0.0,33,0.00,CLR,OVC,0.00,WeatherDisplay:10.37,2013-09-05 05:27:00,
2013-09-05 00:32:00,67.8,37.6,30.09,North,0,0.0,0.0,33,0.00,CLR,OVC,0.00,WeatherDisplay:10.37,2013-09-05 05:32:00,
2013-09-05 00:37:00,67.8,37.6,30.09,North,0,0.0,0.0,33,0.00,CLR,OVC,0.00,WeatherDisplay:10.37,2013-09-05 05:37:00,
2013-09-05 00:42:00,67.8,37.6,30.09,North,0,0.0,0.0,33,0.00,CLR,OVC,0.00,WeatherDisplay:10.37,2013-09-05 05:42:00,
2013-09-05 00:47:00,67.6,37.5,30.09,North,0,0.0,0.0,33,0.00,CLR,OVC,0.00,WeatherDisplay:10.37,2013-09-05 05:47:00,
2013-09-05 00:52:00,67.6,37.5,30.09,North,0,0.0,0.0,33,0.00,CLR,OVC,0.00,WeatherDisplay:10.37,2013-09-05 05:52:00,
2013-09-05 00:57:00,67.6,37.5,30.09,North,0,0.0,0.0,33,0.00,CLR,OVC,0.00,WeatherDisplay:10.37,2013-09-05 05:57:00,
2013-09-05 01:02:00,67.6,37.5,30.09,North,0,0.0,0.0,33,0.00,CLR,OVC,0.00,WeatherDisplay:10.37,2013-09-05 06:02:00,
2013-09-05 01:07:00,67.6,37.5,30.09,North,0,0.0,0.0,33,0.00,CLR,OVC,0.00,WeatherDisplay:10.37,2013-09-05 06:07:00,
2013-09-05 01:12:00,67.5,37.3,30.09,North,0,0.0,0.0,33,0.00,CLR,OVC,0.00,WeatherDisplay:10.37,2013-09-05 06:12:00,
2013-09-05 01:17:00,67.5,37.3,30.09,North,0,0.0,0.0,33,0.00,CLR,OVC,0.00,WeatherDisplay:10.37,2013-09-05 06:17:00,
2013-09-05 01:22:00,67.5,37.3,30.09,North,0,0.0,0.0,33,0.00,CLR,OVC,0.00,WeatherDisplay:10.37,2013-09-05 06:22:00,
2013-09-05 01:27:00,67.3,37.2,30.09,North,0,0.0,0.0,33,0.00,CLR,OVC,0.00,WeatherDisplay:10.37,2013-09-05 06:27:00,
2013-09-05 01:32:00,67.3,37.2,30.09,North,0,0.0,0.0,33,0.00,CLR,OVC,0.00,WeatherDisplay:10.37,2013-09-05 06:32:00,
2013-09-05 01:37:00,67.3,37.2,30.09,North,0,0.0,0.0,33,0.00,CLR,OVC,0.00,WeatherDisplay:10.37,2013-09-05 06:37:00,
2013-09-05 01:42:00,67.3,37.2,30.09,North,0,0.0,0.0,33,0.00,CLR,OVC,0.00,WeatherDisplay:10.37,2013-09-05 06:42:00,
2013-09-05 01:47:00,67.3,37.2,30.09,North,0,0.0,0.0,33,0.00,CLR,OVC,0.00,WeatherDisplay:10.37,2013-09-05 06:47:00,
2013-09-05 01:52:00,67.3,37.2,30.09,North,0,0.0,0.0,33,0.00,CLR,OVC,0.00,WeatherDisplay:10.37,2013-09-05 06:52:00,
2013-09-05 01:57:00,67.3,37.2,30.09,North,0,0.0,0.0,33,0.00,CLR,OVC,0.00,WeatherDisplay:10.37,2013-09-05 06:57:00,
2013-09-05 02:02:00,67.3,37.2,30.09,North,0,0.0,0.0,33,0.00,CLR,OVC,0.00,WeatherDisplay:10.37,2013-09-05 07:02:00,
2013-09-05 02:07:00,67.3,37.2,30.09,North,0,0.0,0.0,33,0.00,CLR,OVC,0.00,WeatherDisplay:10.37,2013-09-05 07:07:00,
2013-09-05 02:12:00,67.3,37.2,30.09,North,0,0.0,0.0,33,0.00,CLR,OVC,0.00,WeatherDisplay:10.37,2013-09-05 07:12:00,
2013-09-05 02:17:00,67.3,37.2,30.09,North,0,0.0,0.0,33,0.00,CLR,OVC,0.00,WeatherDisplay:10.37,2013-09-05 07:17:00,
2013-09-05 02:22:00,67.3,37.2,30.09,North,0,0.0,0.0,33,0.00,CLR,OVC,0.00,WeatherDisplay:10.37,2013-09-05 07:22:00,
2013-09-05 02:27:00,67.3,37.2,30.09,North,0,0.0,0.0,33,0.00,CLR,OVC,0.00,WeatherDisplay:10.37,2013-09-05 07:27:00,
2013-09-05 02:32:00,67.3,37.2,30.12,North,0,0.0,0.0,33,0.00,CLR,OVC,0.00,WeatherDisplay:10.37,2013-09-05 07:32:00,
2013-09-05 02:37:00,67.3,37.2,30.12,North,0,0.0,0.0,33,0.00,CLR,OVC,0.00,WeatherDisplay:10.37,2013-09-05 07:37:00,
2013-09-05 02:42:00,67.3,37.2,30.12,North,0,0.0,0.0,33,0.00,CLR,OVC,0.00,WeatherDisplay:10.37,2013-09-05 07:42:00,
2013-09-05 02:47:00,67.5,37.3,30.12,North,0,0.0,0.0,33,0.00,CLR,OVC,0.00,WeatherDisplay:10.37,2013-09-05 07:47:00,
2013-09-05 02:52:00,67.3,37.2,30.12,North,0,0.0,0.0,33,0.00,CLR,OVC,0.00,WeatherDisplay:10.37,2013-09-05 07:52:00,
2013-09-05 02:57:00,67.3,36.4,30.12,North,0,0.0,0.0,32,0.00,CLR,OVC,0.00,WeatherDisplay:10.37,2013-09-05 07:57:00,
2013-09-05 03:02:00,67.3,36.4,30.12,North,0,0.0,0.0,32,0.00,CLR,OVC,0.00,WeatherDisplay:10.37,2013-09-05 08:02:00,
2013-09-05 03:07:00,67.1,36.2,30.12,North,0,0.0,0.0,32,0.00,CLR,OVC,0.00,WeatherDisplay:10.37,2013-09-05 08:07:00,
2013-09-05 03:12:00,67.1,35.4,30.12,North,0,0.0,0.0,31,0.00,CLR,OVC,0.00,WeatherDisplay:10.37,2013-09-05 08:12:00,
2013-09-05 03:17:00,67.1,35.4,30.12,North,0,0.0,0.0,31,0.00,CLR,OVC,0.00,WeatherDisplay:10.37,2013-09-05 08:17:00,
2013-09-05 03:22:00,67.1,35.4,30.12,North,0,0.0,0.0,31,0.00,CLR,OVC,0.00,WeatherDisplay:10.37,2013-09-05 08:22:00,
2013-09-05 03:27:00,66.9,35.3,30.12,North,0,0.0,0.0,31,0.00,CLR,OVC,0.00,WeatherDisplay:10.37,2013-09-05 08:27:00,
2013-09-05 03:32:00,66.9,35.3,30.12,North,0,0.0,0.0,31,0.00,CLR,OVC,0.00,WeatherDisplay:10.37,2013-09-05 08:32:00,
2013-09-05 03:37:00,66.9,35.3,30.12,North,0,0.0,0.0,31,0.00,CLR,OVC,0.00,WeatherDisplay:10.37,2013-09-05 08:37:00,
2013-09-05 03:42:00,66.9,35.3,30.12,North,0,0.0,0.0,31,0.00,CLR,OVC,0.00,WeatherDisplay:10.37,2013-09-05 08:42:00,
2013-09-05 03:47:00,66.9,35.3,30.12,North,0,0.0,0.0,31,0.00,CLR,OVC,0.00,WeatherDisplay:10.37,2013-09-05 08:47:00,
2013-09-05 03:52:00,66.9,35.3,30.12,North,0,0.0,0.0,31,0.00,CLR,OVC,0.00,WeatherDisplay:10.37,2013-09-05 08:52:00,
2013-09-05 03:57:00,66.9,35.3,30.12,North,0,0.0,0.0,31,0.00,CLR,OVC,0.00,WeatherDisplay:10.37,2013-09-05 08:57:00,
2013-09-05 04:02:00,66.9,35.3,30.12,North,0,0.0,0.0,31,0.00,CLR,OVC,0.00,WeatherDisplay:10.37,2013-09-05 09:02:00,
2013-09-05 04:07:00,66.9,35.3,30.12,North,0,0.0,0.0,31,0.00,CLR,OVC,0.00,WeatherDisplay:10.37,2013-09-05 09:07:00,
2013-09-05 04:12:00,66.9,35.3,30.12,North,0,0.0,0.0,31,0.00,CLR,OVC,0.00,WeatherDisplay:10.37,2013-09-05 09:12:00,
2013-09-05 04:17:00,66.9,35.3,30.12,North,0,0.0,0.0,31,0.00,CLR,OVC,0.00,WeatherDisplay:10.37,2013-09-05 09:17:00,
2013-09-05 04:22:00,66.9,35.3,30.12,North,0,0.0,0.0,31,0.00,CLR,OVC,0.00,WeatherDisplay:10.37,2013-09-05 09:22:00,
2013-09-05 04:27:00,66.9,35.3,30.12,North,0,0.0,0.0,31,0.00,CLR,OVC,0.00,WeatherDisplay:10.37,2013-09-05 09:27:00,
2013-09-05 04:32:00,66.7,35.1,30.12,North,0,0.0,0.0,31,0.00,CLR,OVC,0.00,WeatherDisplay:10.37,2013-09-05 09:32:00,
2013-09-05 04:37:00,66.7,35.1,30.12,North,0,0.0,0.0,31,0.00,CLR,OVC,0.00,WeatherDisplay:10.37,2013-09-05 09:37:00,
2013-09-05 04:42:00,66.7,35.1,30.12,North,0,0.0,0.0,31,0.00,CLR,OVC,0.00,WeatherDisplay:10.37,2013-09-05 09:42:00,
2013-09-05 04:47:00,66.7,35.1,30.12,North,0,0.0,0.0,31,0.00,CLR,OVC,0.00,WeatherDisplay:10.37,2013-09-05 09:47:00,
2013-09-05 04:52:00,66.7,35.1,30.12,North,0,0.0,0.0,31,0.00,CLR,OVC,0.00,WeatherDisplay:10.37,2013-09-05 09:52:00,
2013-09-05 04:57:00,66.7,35.1,30.12,North,0,0.0,0.0,31,0.00,CLR,OVC,0.00,WeatherDisplay:10.37,2013-09-05 09:57:00,
2013-09-05 05:02:00,66.7,35.1,30.12,North,0,0.0,0.0,31,0.00,CLR,OVC,0.00,WeatherDisplay:10.37,2013-09-05 10:02:00,
2013-09-05 05:07:00,66.6,35.8,30.12,North,0,0.0,0.0,32,0.00,CLR,OVC,0.00,WeatherDisplay:10.37,2013-09-05 10:07:00,
2013-09-05 05:12:00,66.6,35.8,30.12,North,0,0.0,0.0,32,0.00,CLR,OVC,0.00,WeatherDisplay:10.37,2013-09-05 10:12:00,
2013-09-05 05:17:00,66.6,35.8,30.12,North,0,0.0,0.0,32,0.00,CLR,OVC,0.00,WeatherDisplay:10.37,2013-09-05 10:17:00,
2013-09-05 05:22:00,66.6,35.8,30.12,North,0,0.0,0.0,32,0.00,CLR,OVC,0.00,WeatherDisplay:10.37,2013-09-05 10:22:00,
2013-09-05 05:27:00,66.6,35.8,30.12,North,0,0.0,0.0,32,0.00,CLR,OVC,0.00,WeatherDisplay:10.37,2013-09-05 10:27:00,
2013-09-05 05:32:00,66.4,35.6,30.12,North,0,0.0,0.0,32,0.00,CLR,OVC,0.00,WeatherDisplay:10.37,2013-09-05 10:32:00,
2013-09-05 05:37:00,66.4,36.4,30.12,North,0,0.0,0.0,33,0.00,CLR,OVC,0.00,WeatherDisplay:10.37,2013-09-05 10:37:00,
2013-09-05 05:42:00,66.2,36.2,30.12,North,0,0.0,0.0,33,0.00,CLR,OVC,0.00,WeatherDisplay:10.37,2013-09-05 10:42:00,
2013-09-05 05:47:00,66.2,36.2,30.12,North,0,0.0,0.0,33,0.00,CLR,OVC,0.00,WeatherDisplay:10.37,2013-09-05 10:47:00,
2013-09-05 05:52:00,66.0,36.1,30.12,North,0,0.0,0.0,33,0.00,CLR,OVC,0.00,WeatherDisplay:10.37,2013-09-05 10:52:00,
2013-09-05 05:57:00,65.8,35.9,30.12,North,0,0.0,0.0,33,0.00,CLR,OVC,0.00,WeatherDisplay:10.37,2013-09-05 10:57:00,
2013-09-05 06:02:00,65.7,35.8,30.12,North,0,0.0,0.0,33,0.00,CLR,OVC,0.00,WeatherDisplay:10.37,2013-09-05 11:02:00,
2013-09-05 06:07:00,65.7,35.8,30.12,North,0,0.0,0.0,33,0.00,CLR,OVC,0.00,WeatherDisplay:10.37,2013-09-05 11:07:00,
2013-09-05 06:12:00,65.5,36.4,30.12,North,0,0.0,0.0,34,0.00,CLR,OVC,0.00,WeatherDisplay:10.37,2013-09-05 11:12:00,
2013-09-05 06:17:00,65.3,36.2,30.12,North,0,0.0,0.0,34,0.00,CLR,OVC,0.00,WeatherDisplay:10.37,2013-09-05 11:17:00,
2013-09-05 06:22:00,65.3,36.2,30.12,North,0,0.0,0.0,34,0.00,CLR,OVC,0.00,WeatherDisplay:10.37,2013-09-05 11:22:00,
2013-09-05 06:27:00,65.1,36.0,30.12,North,0,0.0,0.0,34,0.00,CLR,OVC,0.00,WeatherDisplay:10.37,2013-09-05 11:27:00,
2013-09-05 06:32:00,65.1,36.0,30.15,North,0,0.0,0.0,34,0.00,CLR,OVC,0.00,WeatherDisplay:10.37,2013-09-05 11:32:00,
2013-09-05 06:37:00,64.9,35.9,30.15,North,0,0.0,0.0,34,0.00,CLR,OVC,0.00,WeatherDisplay:10.37,2013-09-05 11:37:00,
2013-09-05 06:42:00,64.8,35.7,30.15,North,0,0.0,0.0,34,0.00,CLR,OVC,0.00,WeatherDisplay:10.37,2013-09-05 11:42:00,
2013-09-05 06:47:00,64.8,35.7,30.15,North,0,0.0,0.0,34,0.00,CLR,OVC,0.00,WeatherDisplay:10.37,2013-09-05 11:47:00,
2013-09-05 06:53:00,64.6,36.3,30.15,North,0,0.0,0.0,35,0.00,CLR,OVC,0.00,WeatherDisplay:10.37,2013-09-05 11:53:00,
2013-09-05 06:58:00,64.6,36.3,30.15,North,0,0.0,0.0,35,0.00,CLR,OVC,0.00,WeatherDisplay:10.37,2013-09-05 11:58:00,
2013-09-05 07:03:00,64.6,36.3,30.15,North,0,0.0,0.0,35,0.00,CLR,OVC,0.00,WeatherDisplay:10.37,2013-09-05 12:03:00,
2013-09-05 07:08:00,64.6,36.3,30.15,North,0,0.0,0.0,35,0.00,CLR,OVC,0.00,WeatherDisplay:10.37,2013-09-05 12:08:00,
2013-09-05 07:13:00,64.6,36.3,30.15,North,0,0.0,0.0,35,0.00,CLR,OVC,0.00,WeatherDisplay:10.37,2013-09-05 12:13:00,
2013-09-05 07:18:00,64.8,36.5,30.15,North,0,0.0,0.0,35,0.00,CLR,OVC,0.00,WeatherDisplay:10.37,2013-09-05 12:18:00,
2013-09-05 07:23:00,64.8,37.2,30.15,North,0,0.0,0.0,36,0.00,CLR,OVC,0.00,WeatherDisplay:10.37,2013-09-05 12:23:00,
2013-09-05 07:28:00,64.9,37.3,30.15,North,0,0.0,0.0,36,0.00,CLR,OVC,0.00,WeatherDisplay:10.37,2013-09-05 12:28:00,
2013-09-05 07:33:00,65.3,37.6,30.15,North,0,0.0,0.0,36,0.00,CLR,OVC,0.00,WeatherDisplay:10.37,2013-09-05 12:33:00,
2013-09-05 07:38:00,65.5,37.8,30.15,North,0,0.0,0.0,36,0.00,CLR,OVC,0.00,WeatherDisplay:10.37,2013-09-05 12:38:00,
2013-09-05 07:43:00,65.7,38.7,30.15,North,0,0.0,0.0,37,0.00,CLR,OVC,0.00,WeatherDisplay:10.37,2013-09-05 12:43:00,
2013-09-05 07:48:00,66.0,39.0,30.15,North,0,0.0,0.0,37,0.00,CLR,OVC,0.00,WeatherDisplay:10.37,2013-09-05 12:48:00,
2013-09-05 07:53:00,66.2,38.4,30.15,North,0,0.0,0.0,36,0.00,CLR,OVC,0.00,WeatherDisplay:10.37,2013-09-05 12:53:00,
2013-09-05 07:58:00,66.6,38.8,30.15,North,0,0.0,0.0,36,0.00,CLR,OVC,0.00,WeatherDisplay:10.37,2013-09-05 12:58:00,
2013-09-05 08:03:00,66.9,39.1,30.15,North,0,0.0,0.0,36,0.00,CLR,OVC,0.00,WeatherDisplay:10.37,2013-09-05 13:03:00,
2013-09-05 08:08:00,67.3,39.4,30.15,North,0,0.0,0.0,36,0.00,CLR,OVC,0.00,WeatherDisplay:10.37,2013-09-05 13:08:00,
2013-09-05 08:13:00,67.8,39.2,30.15,North,0,0.0,0.0,35,0.00,CLR,OVC,0.00,WeatherDisplay:10.37,2013-09-05 13:13:00,
2013-09-05 08:18:00,68.4,38.9,30.15,North,0,0.0,0.0,34,0.00,CLR,OVC,0.00,WeatherDisplay:10.37,2013-09-05 13:18:00,
2013-09-05 08:23:00,69.1,39.5,30.15,North,0,0.0,0.0,34,0.00,CLR,OVC,0.00,WeatherDisplay:10.37,2013-09-05 13:23:00,
2013-09-05 08:28:00,69.6,39.2,30.15,North,0,0.0,0.0,33,0.00,CLR,OVC,0.00,WeatherDisplay:10.37,2013-09-05 13:28:00,
2013-09-05 08:33:00,70.3,39.1,30.15,North,0,0.0,0.0,32,0.00,CLR,OVC,0.00,WeatherDisplay:10.37,2013-09-05 13:33:00,
2013-09-05 08:38:00,70.9,36.1,30.15,North,0,0.0,0.0,28,0.00,CLR,OVC,0.00,WeatherDisplay:10.37,2013-09-05 13:38:00,
2013-09-05 08:43:00,71.4,35.7,30.15,North,0,0.0,0.0,27,0.00,CLR,OVC,0.00,WeatherDisplay:10.37,2013-09-05 13:43:00,
2013-09-05 08:48:00,72.0,34.2,30.15,North,0,0.0,0.0,25,0.00,CLR,OVC,0.00,WeatherDisplay:10.37,2013-09-05 13:48:00,
2013-09-05 08:53:00,72.3,33.5,30.15,North,0,0.0,0.0,24,0.00,CLR,OVC,0.00,WeatherDisplay:10.37,2013-09-05 13:53:00,
2013-09-05 08:58:00,72.7,32.7,30.15,North,0,0.0,0.0,23,0.00,CLR,OVC,0.00,WeatherDisplay:10.37,2013-09-05 13:58:00,
2013-09-05 09:03:00,72.9,32.9,30.15,North,0,0.0,0.0,23,0.00,CLR,OVC,0.00,WeatherDisplay:10.37,2013-09-05 14:03:00,
2013-09-05 09:08:00,73.0,31.9,30.15,North,0,0.0,0.0,22,0.00,CLR,OVC,0.00,WeatherDisplay:10.37,2013-09-05 14:08:00,
2013-09-05 09:13:00,73.4,32.2,30.15,North,0,0.0,0.0,22,0.00,CLR,OVC,0.00,WeatherDisplay:10.37,2013-09-05 14:13:00,
2013-09-05 09:18:00,73.8,31.4,30.15,North,0,0.0,0.0,21,0.00,CLR,OVC,0.00,WeatherDisplay:10.37,2013-09-05 14:18:00,
2013-09-05 09:23:00,73.9,31.5,30.15,North,0,0.0,0.0,21,0.00,CLR,OVC,0.00,WeatherDisplay:10.37,2013-09-05 14:23:00,
2013-09-05 09:28:00,74.3,31.8,30.15,North,0,0.0,0.0,21,0.00,CLR,OVC,0.00,WeatherDisplay:10.37,2013-09-05 14:28:00,
2013-09-05 09:33:00,74.7,32.1,30.18,North,0,0.0,0.0,21,0.00,CLR,OVC,0.00,WeatherDisplay:10.37,2013-09-05 14:33:00,
2013-09-05 09:38:00,75.0,28.6,30.18,North,0,0.0,0.0,18,0.00,CLR,OVC,0.00,WeatherDisplay:10.37,2013-09-05 14:38:00,
2013-09-05 09:43:00,75.0,25.7,30.18,North,0,0.0,0.0,16,0.00,CLR,OVC,0.00,WeatherDisplay:10.37,2013-09-05 14:43:00,
2013-09-05 09:48:00,75.2,24.3,30.18,North,0,0.0,0.0,15,0.00,CLR,OVC,0.00,WeatherDisplay:10.37,2013-09-05 14:48:00,
2013-09-05 09:53:00,75.4,24.5,30.18,North,0,0.0,0.0,15,0.00,CLR,OVC,0.00,WeatherDisplay:10.37,2013-09-05 14:53:00,
2013-09-05 09:58:00,75.6,24.6,30.18,North,0,0.0,0.0,15,0.00,CLR,OVC,0.00,WeatherDisplay:10.37,2013-09-05 14:58:00,
2013-09-05 10:03:00,75.9,24.9,30.18,North,0,0.0,0.0,15,0.00,CLR,OVC,0.00,WeatherDisplay:10.37,2013-09-05 15:03:00,
2013-09-05 10:08:00,76.1,21.6,30.18,North,0,0.0,0.0,13,0.00,CLR,OVC,0.00,WeatherDisplay:10.37,2013-09-05 15:08:00,
2013-09-05 10:13:00,76.3,21.8,30.18,North,0,0.0,0.0,13,0.00,CLR,OVC,0.00,WeatherDisplay:10.37,2013-09-05 15:13:00,
2013-09-05 10:18:00,76.6,22.1,30.18,North,0,0.0,0.0,13,0.00,CLR,OVC,0.00,WeatherDisplay:10.37,2013-09-05 15:18:00,
2013-09-05 10:23:00,76.8,16.1,30.18,North,0,0.0,0.0,10,0.00,CLR,OVC,0.00,WeatherDisplay:10.37,2013-09-05 15:23:00,
2013-09-05 10:28:00,77.2,16.3,30.18,North,0,0.0,0.0,10,0.00,CLR,OVC,0.00,WeatherDisplay:10.37,2013-09-05 15:28:00,
2013-09-05 10:33:00,77.4,16.5,30.18,North,0,0.0,0.0,10,0.00,CLR,OVC,0.00,WeatherDisplay:10.37,2013-09-05 15:33:00,
2013-09-05 10:38:00,77.5,16.6,30.18,North,0,0.0,0.0,10,0.00,CLR,OVC,0.00,WeatherDisplay:10.37,2013-09-05 15:38:00,
2013-09-05 10:43:00,77.7,16.8,30.18,North,0,0.0,0.0,10,0.00,CLR,OVC,0.00,WeatherDisplay:10.37,2013-09-05 15:43:00,
2013-09-05 10:48:00,78.1,17.0,30.18,North,0,0.0,0.0,10,0.00,CLR,OVC,0.00,WeatherDisplay:10.37,2013-09-05 15:48:00,
2013-09-05 10:53:00,78.4,17.3,30.18,North,0,0.0,0.0,10,0.00,CLR,OVC,0.00,WeatherDisplay:10.37,2013-09-05 15:53:00,
2013-09-05 10:58:00,78.6,17.4,30.18,North,0,0.0,0.0,10,0.00,CLR,OVC,0.00,WeatherDisplay:10.37,2013-09-05 15:58:00,
2013-09-05 11:03:00,79.2,17.9,30.18,North,0,0.0,0.0,10,0.00,CLR,OVC,0.00,WeatherDisplay:10.37,2013-09-05 16:03:00,
2013-09-05 11:08:00,79.5,18.1,30.18,North,0,0.0,0.0,10,0.00,CLR,OVC,0.00,WeatherDisplay:10.37,2013-09-05 16:08:00,
2013-09-05 11:13:00,80.1,18.5,30.18,North,0,0.0,0.0,10,0.00,CLR,OVC,0.00,WeatherDisplay:10.37,2013-09-05 16:13:00,
2013-09-05 11:18:00,80.6,16.5,30.18,North,0,0.0,0.0,9,0.00,CLR,OVC,0.00,WeatherDisplay:10.37,2013-09-05 16:18:00,
2013-09-05 11:23:00,81.0,16.8,30.18,North,0,0.0,0.0,9,0.00,CLR,OVC,0.00,WeatherDisplay:10.37,2013-09-05 16:23:00,
2013-09-05 11:28:00,81.7,17.3,30.18,North,0,0.0,0.0,9,0.00,CLR,OVC,0.00,WeatherDisplay:10.37,2013-09-05 16:28:00,
2013-09-05 11:33:00,82.4,17.9,30.21,North,0,0.0,0.0,9,0.00,CLR,OVC,0.00,WeatherDisplay:10.37,2013-09-05 16:33:00,
2013-09-05 11:38:00,83.3,18.5,30.21,North,0,0.0,0.0,9,0.00,CLR,OVC,0.00,WeatherDisplay:10.37,2013-09-05 16:38:00,
2013-09-05 11:43:00,83.5,18.7,30.21,North,0,0.0,0.0,9,0.00,CLR,OVC,0.00,WeatherDisplay:10.37,2013-09-05 16:43:00,
2013-09-05 11:48:00,84.0,19.1,30.21,North,0,0.0,0.0,9,0.00,CLR,OVC,0.00,WeatherDisplay:10.37,2013-09-05 16:48:00,
2013-09-05 11:53:00,84.6,16.7,30.21,North,0,0.0,0.0,8,0.00,CLR,OVC,0.00,WeatherDisplay:10.37,2013-09-05 16:53:00,
2013-09-05 11:58:00,85.3,17.3,30.21,North,0,0.0,0.0,8,0.00,CLR,OVC,0.00,WeatherDisplay:10.37,2013-09-05 16:58:00,
2013-09-05 12:03:00,85.5,17.4,30.21,North,0,0.0,0.0,8,0.00,CLR,OVC,0.00,WeatherDisplay:10.37,2013-09-05 17:03:00,
2013-09-05 12:08:00,85.5,17.4,30.21,North,0,0.0,0.0,8,0.00,CLR,OVC,0.00,WeatherDisplay:10.37,2013-09-05 17:08:00,
2013-09-05 12:13:00,86.0,17.8,30.21,North,0,0.0,0.0,8,0.00,CLR,OVC,0.00,WeatherDisplay:10.37,2013-09-05 17:13:00,
2013-09-05 12:18:00,86.7,18.3,30.21,North,0,0.0,0.0,8,0.00,CLR,OVC,0.00,WeatherDisplay:10.37,2013-09-05 17:18:00,
2013-09-05 12:23:00,86.7,18.3,30.21,North,0,0.0,0.0,8,0.00,CLR,OVC,0.00,WeatherDisplay:10.37,2013-09-05 17:23:00,
2013-09-05 12:28:00,86.7,18.3,30.21,North,0,0.0,0.0,8,0.00,CLR,OVC,0.00,WeatherDisplay:10.37,2013-09-05 17:28:00,
2013-09-05 12:33:00,87.3,18.7,30.21,North,0,0.0,0.0,8,0.00,CLR,OVC,0.00,WeatherDisplay:10.37,2013-09-05 17:33:00,
2013-09-05 12:38:00,87.8,19.1,30.21,North,0,0.0,0.0,8,0.00,CLR,OVC,0.00,WeatherDisplay:10.37,2013-09-05 17:38:00,
2013-09-05 12:43:00,87.8,8.4,30.21,North,0,0.0,0.0,5,0.00,CLR,OVC,0.00,WeatherDisplay:10.37,2013-09-05 17:43:00,
2013-09-05 12:48:00,87.6,12.4,30.21,North,0,0.0,0.0,6,0.00,CLR,OVC,0.00,WeatherDisplay:10.37,2013-09-05 17:48:00,
2013-09-05 12:53:00,87.8,8.4,30.21,North,0,0.0,0.0,5,0.00,CLR,OVC,0.00,WeatherDisplay:10.37,2013-09-05 17:53:00,
2013-09-05 12:58:00,88.2,8.7,30.21,North,0,0.0,0.0,5,0.00,CLR,OVC,0.00,WeatherDisplay:10.37,2013-09-05 17:58:00,
2013-09-05 13:03:00,88.9,19.9,30.21,North,0,0.0,0.0,8,0.00,CLR,OVC,0.00,WeatherDisplay:10.37,2013-09-05 18:03:00,
2013-09-05 13:08:00,89.1,9.3,30.21,North,0,0.0,0.0,5,0.00,CLR,OVC,0.00,WeatherDisplay:10.37,2013-09-05 18:08:00,
2013-09-05 13:13:00,89.8,17.5,30.21,North,0,0.0,0.0,7,0.00,CLR,OVC,0.00,WeatherDisplay:10.37,2013-09-05 18:13:00,
2013-09-05 13:18:00,89.6,9.7,30.21,North,0,0.0,0.0,5,0.00,CLR,OVC,0.00,WeatherDisplay:10.37,2013-09-05 18:18:00,
2013-09-05 13:23:00,89.8,9.8,30.21,North,0,0.0,0.0,5,0.00,CLR,OVC,0.00,WeatherDisplay:10.37,2013-09-05 18:23:00,
2013-09-05 13:28:00,89.4,9.6,30.18,North,0,0.0,0.0,5,0.00,CLR,OVC,0.00,WeatherDisplay:10.37,2013-09-05 18:28:00,
2013-09-05 13:33:00,89.1,9.3,30.18,North,0,0.0,0.0,5,0.00,CLR,OVC,0.00,WeatherDisplay:10.37,2013-09-05 18:33:00,
2013-09-05 13:38:00,89.2,9.4,30.18,North,0,0.0,0.0,5,0.00,CLR,OVC,0.00,WeatherDisplay:10.37,2013-09-05 18:38:00,
2013-09-05 13:43:00,89.4,9.6,30.18,North,0,0.0,0.0,5,0.00,CLR,OVC,0.00,WeatherDisplay:10.37,2013-09-05 18:43:00,
2013-09-05 13:48:00,89.4,9.6,30.18,North,0,0.0,0.0,5,0.00,CLR,OVC,0.00,WeatherDisplay:10.37,2013-09-05 18:48:00,
2013-09-05 13:53:00,89.8,9.8,30.18,North,0,0.0,0.0,5,0.00,CLR,OVC,0.00,WeatherDisplay:10.37,2013-09-05 18:53:00,
2013-09-05 13:58:00,90.7,10.5,30.18,North,0,0.0,0.0,5,0.00,CLR,OVC,0.00,WeatherDisplay:10.37,2013-09-05 18:58:00,
2013-09-05 14:03:00,91.4,6.0,30.18,North,0,0.0,0.0,4,0.00,CLR,OVC,0.00,WeatherDisplay:10.37,2013-09-05 19:03:00,
2013-09-05 14:08:00,92.3,19.3,30.18,North,0,0.0,0.0,7,0.00,CLR,OVC,0.00,WeatherDisplay:10.37,2013-09-05 19:08:00,
2013-09-05 14:13:00,92.3,19.3,30.18,North,0,0.0,0.0,7,0.00,CLR,OVC,0.00,WeatherDisplay:10.37,2013-09-05 19:13:00,
2013-09-05 14:18:00,92.1,19.2,30.18,North,0,0.0,0.0,7,0.00,CLR,OVC,0.00,WeatherDisplay:10.37,2013-09-05 19:18:00,
2013-09-05 14:23:00,92.3,19.3,30.18,North,0,0.0,0.0,7,0.00,CLR,OVC,0.00,WeatherDisplay:10.37,2013-09-05 19:23:00,
2013-09-05 14:28:00,92.1,19.2,30.18,North,0,0.0,0.0,7,0.00,CLR,OVC,0.00,WeatherDisplay:10.37,2013-09-05 19:28:00,
2013-09-05 14:33:00,92.3,6.6,30.18,North,0,0.0,0.0,4,0.00,CLR,OVC,0.00,WeatherDisplay:10.37,2013-09-05 19:33:00,
2013-09-05 14:38:00,92.5,19.5,30.18,North,0,0.0,0.0,7,0.00,CLR,OVC,0.00,WeatherDisplay:10.37,2013-09-05 19:38:00,
2013-09-05 14:43:00,92.7,19.6,30.18,North,0,0.0,0.0,7,0.00,CLR,OVC,0.00,WeatherDisplay:10.37,2013-09-05 19:43:00,
2013-09-05 14:48:00,92.8,19.7,30.18,North,0,0.0,0.0,7,0.00,CLR,OVC,0.00,WeatherDisplay:10.37,2013-09-05 19:48:00,
2013-09-05 14:53:00,92.3,19.3,30.18,North,0,0.0,0.0,7,0.00,CLR,OVC,0.00,WeatherDisplay:10.37,2013-09-05 19:53:00,
2013-09-05 14:58:00,92.1,6.5,30.15,North,0,0.0,0.0,4,0.00,CLR,OVC,0.00,WeatherDisplay:10.37,2013-09-05 19:58:00,
2013-09-05 15:03:00,92.3,6.6,30.15,North,0,0.0,0.0,4,0.00,CLR,OVC,0.00,WeatherDisplay:10.37,2013-09-05 20:03:00,
2013-09-05 15:08:00,92.7,19.6,30.15,North,0,0.0,0.0,7,0.00,CLR,OVC,0.00,WeatherDisplay:10.37,2013-09-05 20:08:00,
2013-09-05 15:13:00,92.7,19.6,30.15,North,0,0.0,0.0,7,0.00,CLR,OVC,0.00,WeatherDisplay:10.37,2013-09-05 20:13:00,
2013-09-05 15:18:00,92.8,19.7,30.15,North,0,0.0,0.0,7,0.00,CLR,OVC,0.00,WeatherDisplay:10.37,2013-09-05 20:18:00,
2013-09-05 15:23:00,92.5,19.5,30.15,North,0,0.0,0.0,7,0.00,CLR,OVC,0.00,WeatherDisplay:10.37,2013-09-05 20:23:00,
2013-09-05 15:28:00,91.8,6.2,30.15,North,0,0.0,0.0,4,0.00,CLR,OVC,0.00,WeatherDisplay:10.37,2013-09-05 20:28:00,
2013-09-05 15:33:00,91.9,6.4,30.15,North,0,0.0,0.0,4,0.00,CLR,OVC,0.00,WeatherDisplay:10.37,2013-09-05 20:33:00,
2013-09-05 15:38:00,90.9,10.6,30.15,North,0,0.0,0.0,5,0.00,CLR,OVC,0.00,WeatherDisplay:10.37,2013-09-05 20:38:00,
2013-09-05 15:43:00,90.3,10.2,30.15,North,0,0.0,0.0,5,0.00,CLR,OVC,0.00,WeatherDisplay:10.37,2013-09-05 20:43:00,
2013-09-05 15:48:00,89.8,9.8,30.15,North,0,0.0,0.0,5,0.00,CLR,OVC,0.00,WeatherDisplay:10.37,2013-09-05 20:48:00,
2013-09-05 15:53:00,89.4,9.6,30.15,North,0,0.0,0.0,5,0.00,CLR,OVC,0.00,WeatherDisplay:10.37,2013-09-05 20:53:00,
2013-09-05 15:58:00,89.6,9.7,30.15,North,0,0.0,0.0,5,0.00,CLR,OVC,0.00,WeatherDisplay:10.37,2013-09-05 20:58:00,
2013-09-05 16:03:00,89.4,9.6,30.15,North,0,0.0,0.0,5,0.00,CLR,OVC,0.00,WeatherDisplay:10.37,2013-09-05 21:03:00,
2013-09-05 16:08:00,88.9,9.2,30.15,North,0,0.0,0.0,5,0.00,CLR,OVC,0.00,WeatherDisplay:10.37,2013-09-05 21:08:00,
2013-09-05 16:13:00,88.2,8.7,30.15,North,0,0.0,0.0,5,0.00,CLR,OVC,0.00,WeatherDisplay:10.37,2013-09-05 21:13:00,
2013-09-05 16:18:00,87.3,12.1,30.15,North,0,0.0,0.0,6,0.00,CLR,OVC,0.00,WeatherDisplay:10.37,2013-09-05 21:18:00,
2013-09-05 16:23:00,87.1,12.0,30.15,North,0,0.0,0.0,6,0.00,CLR,OVC,0.00,WeatherDisplay:10.37,2013-09-05 21:23:00,
2013-09-05 16:28:00,87.1,12.0,30.15,North,0,0.0,0.0,6,0.00,CLR,OVC,0.00,WeatherDisplay:10.37,2013-09-05 21:28:00,
2013-09-05 16:33:00,87.1,12.0,30.15,North,0,0.0,0.0,6,0.00,CLR,OVC,0.00,WeatherDisplay:10.37,2013-09-05 21:33:00,
2013-09-05 16:38:00,87.3,12.1,30.15,North,0,0.0,0.0,6,0.00,CLR,OVC,0.00,WeatherDisplay:10.37,2013-09-05 21:38:00,
2013-09-05 16:43:00,87.3,12.1,30.15,North,0,0.0,0.0,6,0.00,CLR,OVC,0.00,WeatherDisplay:10.37,2013-09-05 21:43:00,
2013-09-05 16:48:00,86.9,11.9,30.15,North,0,0.0,0.0,6,0.00,CLR,OVC,0.00,WeatherDisplay:10.37,2013-09-05 21:48:00,
2013-09-05 16:53:00,86.5,11.6,30.15,North,0,0.0,0.0,6,0.00,CLR,OVC,0.00,WeatherDisplay:10.37,2013-09-05 21:53:00,
2013-09-05 16:58:00,86.2,11.4,30.15,North,0,0.0,0.0,6,0.00,CLR,OVC,0.00,WeatherDisplay:10.37,2013-09-05 21:58:00,
2013-09-05 17:03:00,86.2,11.4,30.15,North,0,0.0,0.0,6,0.00,CLR,OVC,0.00,WeatherDisplay:10.37,2013-09-05 22:03:00,
2013-09-05 17:08:00,86.4,11.5,30.15,North,0,0.0,0.0,6,0.00,CLR,OVC,0.00,WeatherDisplay:10.37,2013-09-05 22:08:00,
2013-09-05 17:13:00,86.5,11.6,30.15,North,0,0.0,0.0,6,0.00,CLR,OVC,0.00,WeatherDisplay:10.37,2013-09-05 22:13:00,
2013-09-05 17:18:00,86.5,11.6,30.12,North,0,0.0,0.0,6,0.00,FEW,OVC,0.00,WeatherDisplay:10.37,2013-09-05 22:18:00,
2013-09-05 17:23:00,86.5,11.6,30.12,North,0,0.0,0.0,6,0.00,FEW,OVC,0.00,WeatherDisplay:10.37,2013-09-05 22:23:00,
2013-09-05 17:28:00,86.4,18.1,30.15,North,0,0.0,0.0,8,0.00,FEW,OVC,0.00,WeatherDisplay:10.37,2013-09-05 22:28:00,
2013-09-05 17:33:00,86.0,17.8,30.15,North,0,0.0,0.0,8,0.00,FEW,OVC,0.00,WeatherDisplay:10.37,2013-09-05 22:33:00,
2013-09-05 17:38:00,85.5,17.4,30.15,North,0,0.0,0.0,8,0.00,FEW,OVC,0.00,WeatherDisplay:10.37,2013-09-05 22:38:00,
2013-09-05 17:43:00,84.9,17.0,30.15,North,0,0.0,0.0,8,0.00,FEW,OVC,0.00,WeatherDisplay:10.37,2013-09-05 22:43:00,
2013-09-05 17:48:00,84.4,16.6,30.15,North,0,0.0,0.0,8,0.00,FEW,OVC,0.00,WeatherDisplay:10.37,2013-09-05 22:48:00,
2013-09-05 17:53:00,84.0,19.1,30.15,North,0,0.0,0.0,9,0.00,FEW,OVC,0.00,WeatherDisplay:10.37,2013-09-05 22:53:00,
2013-09-05 17:58:00,83.8,18.9,30.15,North,0,0.0,0.0,9,0.00,FEW,OVC,0.00,WeatherDisplay:10.37,2013-09-05 22:58:00,
2013-09-05 18:03:00,83.8,18.9,30.15,North,0,0.0,0.0,9,0.00,SCT,OVC,0.00,WeatherDisplay:10.37,2013-09-05 23:03:00,
2013-09-05 18:08:00,83.7,18.8,30.15,North,0,0.0,0.0,9,0.00,SCT,OVC,0.00,WeatherDisplay:10.37,2013-09-05 23:08:00,
2013-09-05 18:13:00,83.5,23.4,30.15,North,0,0.0,0.0,11,0.00,SCT,OVC,0.00,WeatherDisplay:10.37,2013-09-05 23:13:00,
2013-09-05 18:18:00,83.1,23.1,30.15,North,0,0.0,0.0,11,0.00,SCT,OVC,0.00,WeatherDisplay:10.37,2013-09-05 23:18:00,
2013-09-05 18:23:00,82.8,22.9,30.15,North,0,0.0,0.0,11,0.00,SCT,OVC,0.00,WeatherDisplay:10.37,2013-09-05 23:23:00,
2013-09-05 18:28:00,82.2,24.5,30.15,North,0,0.0,0.0,12,0.00,SCT,OVC,0.00,WeatherDisplay:10.37,2013-09-05 23:28:00,
2013-09-05 18:33:00,81.9,24.2,30.15,North,0,0.0,0.0,12,0.00,SCT,OVC,0.00,WeatherDisplay:10.37,2013-09-05 23:33:00,
2013-09-05 18:38:00,81.5,27.7,30.15,North,0,0.0,0.0,14,0.00,SCT,OVC,0.00,WeatherDisplay:10.37,2013-09-05 23:38:00,
2013-09-05 18:43:00,81.1,27.4,30.15,North,0,0.0,0.0,14,0.00,SCT,OVC,0.00,WeatherDisplay:10.37,2013-09-05 23:43:00,
2013-09-05 18:48:00,80.6,27.0,30.15,North,0,0.0,0.0,14,0.00,SCT,OVC,0.00,WeatherDisplay:10.37,2013-09-05 23:48:00,
2013-09-05 18:53:00,80.4,28.5,30.15,North,0,0.0,0.0,15,0.00,SCT,OVC,0.00,WeatherDisplay:10.37,2013-09-05 23:53:00,
2013-09-05 18:58:00,80.1,31.3,30.15,North,0,0.0,0.0,17,0.00,SCT,OVC,0.00,WeatherDisplay:10.37,2013-09-05 23:58:00,
2013-09-05 19:03:00,79.7,31.0,30.15,North,0,0.0,0.0,17,0.00,SCT,OVC,0.00,WeatherDisplay:10.37,2013-09-06 00:03:00,
2013-09-05 19:08:00,79.2,30.6,30.15,North,0,0.0,0.0,17,0.00,SCT,OVC,0.00,WeatherDisplay:10.37,2013-09-06 00:08:00,
2013-09-05 19:13:00,78.8,30.3,30.15,North,0,0.0,0.0,17,0.00,SCT,OVC,0.00,WeatherDisplay:10.37,2013-09-06 00:13:00,
2013-09-05 19:18:00,78.4,26.9,30.15,North,0,0.0,0.0,15,0.00,SCT,OVC,0.00,WeatherDisplay:10.37,2013-09-06 00:18:00,
2013-09-05 19:23:00,78.1,31.1,30.15,North,0,0.0,0.0,18,0.00,SCT,OVC,0.00,WeatherDisplay:10.37,2013-09-06 00:23:00,
2013-09-05 19:28:00,77.7,30.8,30.15,North,0,0.0,0.0,18,0.00,SCT,OVC,0.00,WeatherDisplay:10.37,2013-09-06 00:28:00,
2013-09-05 19:33:00,77.4,26.1,30.15,North,0,0.0,0.0,15,0.00,SCT,OVC,0.00,WeatherDisplay:10.37,2013-09-06 00:33:00,
2013-09-05 19:38:00,77.0,25.8,30.15,North,0,0.0,0.0,15,0.00,SCT,OVC,0.00,WeatherDisplay:10.37,2013-09-06 00:38:00,
2013-09-05 19:43:00,76.6,25.5,30.15,North,0,0.0,0.0,15,0.00,SCT,OVC,0.00,WeatherDisplay:10.37,2013-09-06 00:43:00,
2013-09-05 19:48:00,76.5,25.3,30.15,North,0,0.0,0.0,15,0.00,SCT,OVC,0.00,WeatherDisplay:10.37,2013-09-06 00:48:00,
2013-09-05 19:53:00,76.1,25.1,30.15,North,0,0.0,0.0,15,0.00,SCT,OVC,0.00,WeatherDisplay:10.37,2013-09-06 00:53:00,
2013-09-05 19:58:00,75.7,24.8,30.12,North,0,0.0,0.0,15,0.00,SCT,OVC,0.00,WeatherDisplay:10.37,2013-09-06 00:58:00,
2013-09-05 20:03:00,75.4,24.5,30.12,North,0,0.0,0.0,15,0.00,SCT,OVC,0.00,WeatherDisplay:10.37,2013-09-06 01:03:00,
2013-09-05 20:08:00,75.0,25.7,30.12,North,0,0.0,0.0,16,0.00,SCT,OVC,0.00,WeatherDisplay:10.37,2013-09-06 01:08:00,
2013-09-05 20:13:00,74.8,20.7,30.15,North,0,0.0,0.0,13,0.00,SCT,OVC,0.00,WeatherDisplay:10.37,2013-09-06 01:13:00,
2013-09-05 20:18:00,74.5,20.4,30.15,North,0,0.0,0.0,13,0.00,CLR,OVC,0.00,WeatherDisplay:10.37,2013-09-06 01:18:00,
2013-09-05 20:23:00,74.3,20.2,30.15,North,0,0.0,0.0,13,0.00,CLR,OVC,0.00,WeatherDisplay:10.37,2013-09-06 01:23:00,
2013-09-05 20:28:00,74.1,20.1,30.15,North,0,0.0,0.0,13,0.00,CLR,OVC,0.00,WeatherDisplay:10.37,2013-09-06 01:28:00,
2013-09-05 20:33:00,73.8,19.8,30.15,North,0,0.0,0.0,13,0.00,CLR,OVC,0.00,WeatherDisplay:10.37,2013-09-06 01:33:00,
2013-09-05 20:38:00,73.6,19.7,30.15,North,0,0.0,0.0,13,0.00,CLR,OVC,0.00,WeatherDisplay:10.37,2013-09-06 01:38:00,
2013-09-05 20:43:00,73.4,19.5,30.15,North,0,0.0,0.0,13,0.00,CLR,OVC,0.00,WeatherDisplay:10.37,2013-09-06 01:43:00,
2013-09-05 20:48:00,73.2,21.1,30.15,North,0,0.0,0.0,14,0.00,CLR,OVC,0.00,WeatherDisplay:10.37,2013-09-06 01:48:00,
2013-09-05 20:53:00,72.9,20.8,30.15,North,0,0.0,0.0,14,0.00,CLR,OVC,0.00,WeatherDisplay:10.37,2013-09-06 01:53:00,
2013-09-05 20:58:00,72.7,20.7,30.15,North,0,0.0,0.0,14,0.00,CLR,OVC,0.00,WeatherDisplay:10.37,2013-09-06 01:58:00,
2013-09-05 21:03:00,72.5,20.5,30.15,North,0,0.0,0.0,14,0.00,CLR,OVC,0.00,WeatherDisplay:10.37,2013-09-06 02:03:00,
2013-09-05 21:08:00,72.3,20.4,30.15,North,0,0.0,0.0,14,0.00,CLR,OVC,0.00,WeatherDisplay:10.37,2013-09-06 02:08:00,
2013-09-05 21:13:00,72.1,20.3,30.15,North,0,0.0,0.0,14,0.00,CLR,OVC,0.00,WeatherDisplay:10.37,2013-09-06 02:13:00,
2013-09-05 21:18:00,72.0,20.1,30.15,North,0,0.0,0.0,14,0.00,CLR,OVC,0.00,WeatherDisplay:10.37,2013-09-06 02:18:00,
2013-09-05 21:23:00,71.8,20.0,30.15,North,0,0.0,0.0,14,0.00,CLR,OVC,0.00,WeatherDisplay:10.37,2013-09-06 02:23:00,
2013-09-05 21:28:00,71.6,19.8,30.15,North,0,0.0,0.0,14,0.00,CLR,OVC,0.00,WeatherDisplay:10.37,2013-09-06 02:28:00,
2013-09-05 21:33:00,71.4,19.7,30.15,North,0,0.0,0.0,14,0.00,CLR,OVC,0.00,WeatherDisplay:10.37,2013-09-06 02:33:00,
2013-09-05 21:38:00,71.4,19.7,30.15,North,0,0.0,0.0,14,0.00,CLR,OVC,0.00,WeatherDisplay:10.37,2013-09-06 02:38:00,
2013-09-05 21:43:00,71.2,19.5,30.15,North,0,0.0,0.0,14,0.00,CLR,OVC,0.00,WeatherDisplay:10.37,2013-09-06 02:43:00,
2013-09-05 21:48:00,71.1,19.4,30.15,North,0,0.0,0.0,14,0.00,CLR,OVC,0.00,WeatherDisplay:10.37,2013-09-06 02:48:00,
2013-09-05 21:53:00,70.9,19.3,30.15,North,0,0.0,0.0,14,0.00,CLR,OVC,0.00,WeatherDisplay:10.37,2013-09-06 02:53:00,
2013-09-05 21:58:00,70.9,19.3,30.15,North,0,0.0,0.0,14,0.00,CLR,OVC,0.00,WeatherDisplay:10.37,2013-09-06 02:58:00,
2013-09-05 22:03:00,70.7,19.1,30.15,North,0,0.0,0.0,14,0.00,CLR,OVC,0.00,WeatherDisplay:10.37,2013-09-06 03:03:00,
2013-09-05 22:08:00,70.5,19.0,30.15,North,0,0.0,0.0,14,0.00,CLR,OVC,0.00,WeatherDisplay:10.37,2013-09-06 03:08:00,
2013-09-05 22:13:00,70.5,19.0,30.15,North,0,0.0,0.0,14,0.00,CLR,OVC,0.00,WeatherDisplay:10.37,2013-09-06 03:13:00,
2013-09-05 22:18:00,70.3,18.8,30.15,North,0,0.0,0.0,14,0.00,CLR,OVC,0.00,WeatherDisplay:10.37,2013-09-06 03:18:00,
2013-09-05 22:23:00,70.2,23.3,30.15,North,0,0.0,0.0,17,0.00,CLR,OVC,0.00,WeatherDisplay:10.37,2013-09-06 03:23:00,
2013-09-05 22:28:00,70.2,23.3,30.15,North,0,0.0,0.0,17,0.00,CLR,OVC,0.00,WeatherDisplay:10.37,2013-09-06 03:28:00,
2013-09-05 22:33:00,70.0,23.1,30.15,North,0,0.0,0.0,17,0.00,CLR,OVC,0.00,WeatherDisplay:10.37,2013-09-06 03:33:00,
2013-09-05 22:38:00,69.8,23.0,30.15,North,0,0.0,0.0,17,0.00,CLR,OVC,0.00,WeatherDisplay:10.37,2013-09-06 03:38:00,
2013-09-05 22:43:00,69.6,26.7,30.15,North,0,0.0,0.0,20,0.00,CLR,OVC,0.00,WeatherDisplay:10.37,2013-09-06 03:43:00,
2013-09-05 22:48:00,69.4,26.6,30.15,North,0,0.0,0.0,20,0.00,CLR,OVC,0.00,WeatherDisplay:10.37,2013-09-06 03:48:00,
2013-09-05 22:53:00,69.3,26.4,30.15,North,0,0.0,0.0,20,0.00,CLR,OVC,0.00,WeatherDisplay:10.37,2013-09-06 03:53:00,
2013-09-05 22:58:00,69.3,26.4,30.15,North,0,0.0,0.0,20,0.00,CLR,OVC,0.00,WeatherDisplay:10.37,2013-09-06 03:58:00,
2013-09-05 23:01:00,69.1,26.3,30.15,North,0,0.0,0.0,20,0.00,CLR,OVC,0.00,WeatherDisplay:10.37,2013-09-06 04:01:00,
2013-09-05 23:02:00,69.1,26.3,30.15,North,0,0.0,0.0,20,0.00,CLR,OVC,0.00,WeatherDisplay:10.37,2013-09-06 04:02:00,
2013-09-05 23:03:00,69.1,26.3,30.15,North,0,0.0,0.0,20,0.00,CLR,OVC,0.00,WeatherDisplay:10.37,2013-09-06 04:03:00,
2013-09-05 23:05:00,68.9,26.1,30.15,North,0,0.0,0.0,20,0.00,CLR,OVC,0.00,WeatherDisplay:10.37,2013-09-06 04:05:00,
2013-09-05 23:10:00,68.9,28.5,30.15,North,0,0.0,0.0,22,0.00,CLR,OVC,0.00,WeatherDisplay:10.37,2013-09-06 04:10:00,
2013-09-05 23:15:00,68.7,28.3,30.15,North,0,0.0,0.0,22,0.00,CLR,OVC,0.00,WeatherDisplay:10.37,2013-09-06 04:15:00,
2013-09-05 23:20:00,68.5,28.2,30.15,North,0,0.0,0.0,22,0.00,CLR,OVC,0.00,WeatherDisplay:10.37,2013-09-06 04:20:00,
2013-09-05 23:25:00,68.5,28.2,30.15,North,0,0.0,0.0,22,0.00,CLR,OVC,0.00,WeatherDisplay:10.37,2013-09-06 04:25:00,
2013-09-05 23:30:00,68.4,28.0,30.15,North,0,0.0,0.0,22,0.00,CLR,OVC,0.00,WeatherDisplay:10.37,2013-09-06 04:30:00,
2013-09-05 23:35:00,68.2,27.9,30.15,North,0,0.0,0.0,22,0.00,CLR,OVC,0.00,WeatherDisplay:10.37,2013-09-06 04:35:00,
2013-09-05 23:40:00,68.2,27.9,30.15,North,0,0.0,0.0,22,0.00,CLR,OVC,0.00,WeatherDisplay:10.37,2013-09-06 04:40:00,
2013-09-05 23:45:00,68.0,27.7,30.15,North,0,0.0,0.0,22,0.00,CLR,OVC,0.00,WeatherDisplay:10.37,2013-09-06 04:45:00,
2013-09-05 23:50:00,67.8,27.6,30.15,North,0,0.0,0.0,22,0.00,CLR,OVC,0.00,WeatherDisplay:10.37,2013-09-06 04:50:00,
2013-09-05 23:55:00,67.6,27.4,30.15,North,0,0.0,0.0,22,0.00,CLR,OVC,0.00,WeatherDisplay:10.37,2013-09-06 04:55:00,